When you browse on this site, cookies collect data to enhance your experience and personalize the content and advertising you see.
Visit our Privacy Policy to learn more. By continuing to use the site, you agree to this use of cookies and data.
  • In Österreich
  • Länderverzeichnis
  • Für 7 Tage
  • Wassertemperatur
  • Satellitenkarten
  • Wetterkarte
  • News
  • Widgets
  • user-avatar
    Anmelden

    Stündliche Wetter Viedma

    Heute, 21 Juli, Sonntag

    Zeit Temperatur Niederschläge Wind Luftdruck Luftfeuchtigkeit
    00:00 +10°C° 0 mm 7 m/S 744 mmHg 87%
    01:00 +11°C° 0 mm 7 m/S 744 mmHg 87%
    02:00 +11°C° 0 mm 7 m/S 744 mmHg 86%
    03:00 +10°C° 0 mm 6 m/S 744 mmHg 83%
    04:00 +10°C° 0 mm 6 m/S 744 mmHg 80%
    05:00 +10°C° 0 mm 5 m/S 744 mmHg 77%
    06:00 +9°C° 0 mm 5 m/S 744 mmHg 73%
    07:00 +9°C° 0 mm 5 m/S 745 mmHg 69%
    08:00 +8°C° 0 mm 5 m/S 745 mmHg 65%
    09:00 +10°C° 0 mm 7 m/S 746 mmHg 56%
    10:00 +11°C° 0 mm 8 m/S 747 mmHg 46%
    11:00 +12°C° 0 mm 10 m/S 747 mmHg 37%
    12:00 +12°C° 0 mm 10 m/S 747 mmHg 33%
    13:00 +13°C° 0 mm 9 m/S 747 mmHg 30%
    14:00 +13°C° 0 mm 9 m/S 747 mmHg 26%
    15:00 +12°C° 0 mm 7 m/S 747 mmHg 29%
    16:00 +11°C° 0 mm 6 m/S 748 mmHg 32%
    17:00 +11°C° 0 mm 4 m/S 749 mmHg 35%
    18:00 +10°C° 0 mm 4 m/S 749 mmHg 44%
    19:00 +8°C° 0 mm 4 m/S 750 mmHg 54%
    20:00 +8°C° 0 mm 3 m/S 751 mmHg 63%
    21:00 +7°C° 0 mm 3 m/S 752 mmHg 65%
    22:00 +7°C° 0 mm 3 m/S 752 mmHg 67%
    23:00 +7°C° 0 mm 3 m/S 753 mmHg 69%

    Morgen, 22 Juli, Montag

    Zeit Temperatur Niederschläge Wind Luftdruck Luftfeuchtigkeit
    00:00 +5°C° 0 mm 3 m/S 754 mmHg 68%
    01:00 +5°C° 0 mm 3 m/S 754 mmHg 67%
    02:00 +5°C° 0 mm 3 m/S 755 mmHg 66%
    03:00 +5°C° 0 mm 3 m/S 756 mmHg 67%
    04:00 +4°C° 0 mm 3 m/S 756 mmHg 68%
    05:00 +4°C° 0 mm 3 m/S 757 mmHg 69%
    06:00 +4°C° 0 mm 3 m/S 758 mmHg 71%
    07:00 +4°C° 0 mm 3 m/S 758 mmHg 72%
    08:00 +4°C° 0 mm 3 m/S 758 mmHg 73%
    09:00 +7°C° 0 mm 3 m/S 759 mmHg 62%
    10:00 +9°C° 0 mm 3 m/S 760 mmHg 51%
    11:00 +11°C° 0 mm 4 m/S 760 mmHg 40%
    12:00 +11°C° 0 mm 4 m/S 760 mmHg 38%
    13:00 +10°C° 0 mm 5 m/S 760 mmHg 35%
    14:00 +12°C° 0 mm 5 m/S 760 mmHg 32%
    15:00 +9°C° 0 mm 5 m/S 760 mmHg 34%
    16:00 +8°C° 0 mm 4 m/S 761 mmHg 37%
    17:00 +8°C° 0 mm 3 m/S 761 mmHg 39%
    18:00 +7°C° 0 mm 3 m/S 761 mmHg 39%
    19:00 +5°C° 0 mm 3 m/S 761 mmHg 40%
    20:00 +4°C° 0 mm 3 m/S 762 mmHg 40%
    21:00 +4°C° 0 mm 3 m/S 762 mmHg 40%
    22:00 +4°C° 0 mm 3 m/S 762 mmHg 40%
    23:00 +4°C° 0 mm 3 m/S 763 mmHg 39%

    übermorgen, 23 Juli, Dienstag

    Zeit Temperatur Niederschläge Wind Luftdruck Luftfeuchtigkeit
    00:00 +3°C° 0 mm 4 m/S 763 mmHg 41%
    01:00 +3°C° 0 mm 4 m/S 762 mmHg 44%
    02:00 +3°C° 0 mm 4 m/S 762 mmHg 46%
    03:00 +3°C° 0 mm 4 m/S 762 mmHg 51%
    04:00 +3°C° 0 mm 4 m/S 762 mmHg 56%
    05:00 +1°C° 0 mm 4 m/S 762 mmHg 61%
    06:00 +1°C° 0 mm 4 m/S 763 mmHg 60%
    07:00 +1°C° 0 mm 4 m/S 763 mmHg 60%
    08:00 +1°C° 0 mm 4 m/S 763 mmHg 59%
    09:00 +3°C° 0 mm 5 m/S 763 mmHg 53%
    10:00 +7°C° 0 mm 5 m/S 764 mmHg 47%
    11:00 +9°C° 0 mm 6 m/S 764 mmHg 41%
    12:00 +9°C° 0 mm 6 m/S 764 mmHg 39%
    13:00 +10°C° 0 mm 6 m/S 764 mmHg 38%
    14:00 +10°C° 0 mm 6 m/S 764 mmHg 37%
    15:00 +9°C° 0 mm 5 m/S 764 mmHg 41%
    16:00 +8°C° 0 mm 5 m/S 764 mmHg 45%
    17:00 +7°C° 0 mm 4 m/S 765 mmHg 50%
    18:00 +7°C° 0 mm 3 m/S 765 mmHg 55%
    19:00 +7°C° 0 mm 3 m/S 766 mmHg 59%
    20:00 +5°C° 0 mm 3 m/S 766 mmHg 64%
    21:00 +5°C° 0 mm 3 m/S 767 mmHg 67%
    22:00 +5°C° 0 mm 2 m/S 767 mmHg 70%
    23:00 +5°C° 0 mm 2 m/S 768 mmHg 73%

    24 Juli, Mittwoch

    Zeit Temperatur Niederschläge Wind Luftdruck Luftfeuchtigkeit
    00:00 +5°C° 0 mm 2 m/S 768 mmHg 76%
    01:00 +4°C° 0 mm 2 m/S 769 mmHg 78%
    02:00 +4°C° 0 mm 2 m/S 769 mmHg 81%
    03:00 +5°C° 0 mm 1 m/S 769 mmHg 82%
    04:00 +4°C° 0 mm 1 m/S 769 mmHg 82%
    05:00 +4°C° 0 mm 1 m/S 769 mmHg 83%
    06:00 +4°C° 0 mm 1 m/S 770 mmHg 82%
    07:00 +4°C° 0 mm 1 m/S 770 mmHg 82%
    08:00 +4°C° 0 mm 1 m/S 770 mmHg 81%
    09:00 +5°C° 0 mm 2 m/S 771 mmHg 72%
    10:00 +7°C° 0 mm 2 m/S 771 mmHg 63%
    11:00 +9°C° 0 mm 3 m/S 771 mmHg 54%
    12:00 +10°C° 0 mm 3 m/S 771 mmHg 49%
    13:00 +11°C° 0 mm 4 m/S 770 mmHg 45%
    14:00 +11°C° 0 mm 4 m/S 770 mmHg 40%
    15:00 +10°C° 0 mm 4 m/S 769 mmHg 44%
    16:00 +9°C° 0 mm 3 m/S 769 mmHg 47%
    17:00 +8°C° 0 mm 3 m/S 769 mmHg 50%
    18:00 +6°C° 0 mm 4 m/S 769 mmHg 56%
    19:00 +5°C° 0 mm 4 m/S 769 mmHg 61%
    20:00 +3°C° 0 mm 5 m/S 769 mmHg 66%
    21:00 +3°C° 0 mm 5 m/S 769 mmHg 69%
    22:00 +3°C° 0 mm 5 m/S 768 mmHg 71%
    23:00 +3°C° 0 mm 6 m/S 768 mmHg 74%

    25 Juli, Donnerstag

    Zeit Temperatur Niederschläge Wind Luftdruck Luftfeuchtigkeit
    00:00 +3°C° 0 mm 6 m/S 768 mmHg 74%
    01:00 +3°C° 0 mm 6 m/S 767 mmHg 74%
    02:00 +3°C° 0 mm 6 m/S 767 mmHg 75%
    03:00 +3°C° 0 mm 6 m/S 767 mmHg 69%
    04:00 +3°C° 0 mm 6 m/S 766 mmHg 63%
    05:00 +2°C° 0 mm 6 m/S 766 mmHg 58%
    06:00 +2°C° 0 mm 7 m/S 766 mmHg 59%
    07:00 +2°C° 0 mm 7 m/S 766 mmHg 60%
    08:00 +2°C° 0 mm 7 m/S 766 mmHg 61%
    09:00 +5°C° 0 mm 8 m/S 766 mmHg 54%
    10:00 +7°C° 0 mm 8 m/S 766 mmHg 46%
    11:00 +10°C° 0 mm 9 m/S 766 mmHg 39%
    12:00 +11°C° 0 mm 9 m/S 765 mmHg 37%
    13:00 +12°C° 0 mm 9 m/S 764 mmHg 35%
    14:00 +13°C° 0 mm 9 m/S 764 mmHg 33%
    15:00 +12°C° 0 mm 9 m/S 763 mmHg 35%
    16:00 +11°C° 0 mm 8 m/S 763 mmHg 37%
    17:00 +11°C° 0 mm 7 m/S 763 mmHg 39%
    18:00 +10°C° 0 mm 8 m/S 763 mmHg 41%
    19:00 +10°C° 0 mm 8 m/S 763 mmHg 43%
    20:00 +8°C° 0 mm 9 m/S 763 mmHg 45%
    21:00 +8°C° 0 mm 9 m/S 763 mmHg 46%
    22:00 +7°C° 0 mm 9 m/S 763 mmHg 48%
    23:00 +7°C° 0 mm 9 m/S 763 mmHg 49%

    26 Juli, Freitag

    Zeit Temperatur Niederschläge Wind Luftdruck Luftfeuchtigkeit
    00:00 +7°C° 0 mm 8 m/S 763 mmHg 51%
    01:00 +6°C° 0 mm 8 m/S 763 mmHg 54%
    02:00 +6°C° 0 mm 7 m/S 764 mmHg 56%
    03:00 +5°C° 0 mm 6 m/S 764 mmHg 58%
    04:00 +5°C° 0 mm 6 m/S 764 mmHg 60%
    05:00 +5°C° 0 mm 5 m/S 764 mmHg 61%
    06:00 +5°C° 0 mm 5 m/S 764 mmHg 63%
    07:00 +5°C° 0 mm 4 m/S 764 mmHg 64%
    08:00 +4°C° 0 mm 3 m/S 764 mmHg 65%
    09:00 +6°C° 0 mm 4 m/S 764 mmHg 59%
    10:00 +8°C° 0 mm 4 m/S 765 mmHg 53%
    11:00 +10°C° 0 mm 4 m/S 765 mmHg 47%
    12:00 +11°C° 0 mm 3 m/S 765 mmHg 44%
    13:00 +12°C° 0 mm 3 m/S 764 mmHg 41%
    14:00 +13°C° 0 mm 3 m/S 764 mmHg 39%
    15:00 +12°C° 0 mm 3 m/S 764 mmHg 41%
    16:00 +13°C° 0 mm 2 m/S 764 mmHg 44%
    17:00 +12°C° 0 mm 2 m/S 764 mmHg 46%
    18:00 +12°C° 0 mm 2 m/S 764 mmHg 48%
    19:00 +10°C° 0 mm 2 m/S 765 mmHg 49%
    20:00 +10°C° 0 mm 2 m/S 765 mmHg 50%
    21:00 +10°C° 0 mm 2 m/S 765 mmHg 51%
    22:00 +9°C° 0 mm 2 m/S 765 mmHg 52%
    23:00 +9°C° 0 mm 2 m/S 765 mmHg 52%
    Mehr zeigen